Weather in Filippovskoye

Russia / Vladimir Oblast     56°05′51″N   38°36′36″E
temp.,
°C
wind,
m/s
gust,
m/s
humid.,
%
clouds,
%
prec.,
mm/h
press.,
hPa
HPBL,
m
29 june, wed
wed2900:00+11ne22730 0.0 102338
03:00+9ne22730 0.0 102432
06:00+12ne23650 0.0 1024132
09:00+18ne34430 0.0 10231031
12:00+21ne33320 0.0 10221802
15:00+22nne33300 0.0 10212008
18:00+21nne33360 0.0 10211542
21:00+14ne34650 0.0 102069
30 june, thu
thu3000:00+12ne22720 0.0 102120
03:00+11nnw117792 0.0 102110
06:00+13n2367100 0.0 1020105
09:00+20n24460 0.0 10191024
12:00+23n45305 0.0 10182033
15:00+24nnw5631100 0.0 10172267
18:00+22nnw56394 0.0 10171800
21:00+16nw39661 0.0 1018168
1 july, fri
fri100:00+14nnw368022 0.0 1018112
03:00+13n37850 0.0 1019136
06:00+14nne25730 0.0 1020174
09:00+19ne35435 0.0 10201048
12:00+22nne57330 0.0 10201830
15:00+22nne56310 0.0 10201912
18:00+21ne46405 0.0 10201468
21:00+15ne116656 0.0 102111
2 july, sat
sat200:00+12nw11705 0.0 102110
03:00+12wnw2269100 0.0 102130
06:00+14w2768100 0.0 1020195
09:00+20wnw354817 0.0 1019341
12:00+26nw46436 0.0 10161182
15:00+29n69395 0.0 10142885
18:00+27n511455 0.0 10142361
21:00+20nnw38705 0.0 1015147
3 july, sun
sun300:00+17n25830 0.0 101579
03:00+14nne23930 0.0 101655
06:00+16ne23830 0.0 1016136
09:00+22ne24562 0.0 1016800
12:00+26nne343893 0.0 10151848
15:00+28n343299 0.0 10142140
18:00+26nnw44400 0.0 10141715
21:00+19nnw22700 0.0 101419